CW2969 Weather Reports


time (UTC)temp
C
wind
direction
speed
KPH
gust
KPH
rain 1hr
cm
rain 24hr
cm
rain mn
cm
humidity
%
barometer
mb
20260509143522 23 95 6.4 12.9 0.03 0.08 0.08 78 1009.8
20260509143022 23 178 0.0 12.9 0.03 0.08 0.08 78 1009.8
20260509142522 23 173 3.2 9.7 0.03 0.08 0.08 78 1009.3
20260509142022 23 205 1.6 11.3 0.03 0.08 0.08 78 1009.3
20260509141021 23 223 3.2 8.0 0.03 0.08 0.08 78 1009.6
20260509140521 23 145 1.6 1.6 0.03 0.08 0.08 78 1009.8
20260509140021 23 114 0.0 3.2 0.00 0.05 0.05 78 1009.9
20260509135521 23 114 1.6 3.2 0.00 0.05 0.05 78 1009.9
20260509135021 23 114 0.0 0.0 0.00 0.05 0.05 78 1009.9
20260509134521 23 114 0.0 0.0 0.00 0.05 0.05 78 1009.9
20260509134021 23 114 0.0 0.0 0.00 0.05 0.05 78 1009.9
20260509133021 23 114 0.0 0.0 0.00 0.05 0.05 79 1009.9
20260509132521 23 114 0.0 0.0 0.00 0.05 0.05 79 1009.9
20260509132021 23 114 0.0 0.0 0.00 0.05 0.05 79 1010.0
20260509131521 23 114 0.0 1.6 0.00 0.05 0.05 79 1009.9
20260509131021 23 114 0.0 1.6 0.00 0.05 0.05 79 1009.8
20260509130520 23 121 0.0 0.0 0.00 0.05 0.05 79 1009.7
20260509125521 23 122 0.0 1.6 0.00 0.05 0.05 79 1009.5
20260509125020 23 347 0.0 0.0 0.00 0.05 0.05 79 1009.2
20260509124520 23 347 0.0 0.0 0.00 0.05 0.05 79 1009.1
20260509124020 23 347 0.0 0.0 0.00 0.05 0.05 79 1009.2
20260509123020 23 68 0.0 0.0 0.00 0.05 0.05 79 1009.3
20260509122521 23 68 0.0 0.0 0.00 0.05 0.05 79 1009.3
20260509122020 23 68 0.0 0.0 0.00 0.05 0.05 79 1009.4
20260509121520 23 68 0.0 0.0 0.00 0.05 0.05 79 1009.4
20260509121020 23 68 0.0 0.0 0.00 0.05 0.05 79 1009.6
20260509120020 23 68 0.0 0.0 0.00 0.05 0.05 80 1009.5
20260509115520 23 68 0.0 0.0 0.00 0.05 0.05 80 1009.5
20260509115020 23 68 0.0 0.0 0.00 0.05 0.05 80 1009.6
20260509114520 23 68 0.0 1.6 0.00 0.05 0.05 80 1009.7
20260509113020 23 41 0.0 1.6 0.00 0.05 0.05 80 1010.1
20260509112520 23 46 0.0 0.0 0.00 0.05 0.05 80 1009.9
20260509112019 23 46 0.0 0.0 0.00 0.05 0.05 80 1010.0
20260509111520 23 46 0.0 1.6 0.00 0.05 0.05 80 1010.2
20260509111020 23 46 0.0 3.2 0.00 0.05 0.05 80 1010.2
20260509110520 23 46 0.0 6.4 0.00 0.05 0.05 80 1010.2
20260509110019 23 31 1.6 6.4 0.00 0.05 0.05 80 1010.2
20260509105519 23 59 0.0 3.2 0.00 0.05 0.05 80 1010.4
20260509105019 23 80 0.0 3.2 0.00 0.05 0.05 80 1010.4
20260509104519 23 70 3.2 3.2 0.00 0.05 0.05 80 1010.5
20260509103519 23 73 0.0 3.2 0.00 0.05 0.05 81 1010.4
20260509103019 23 5 0.0 3.2 0.00 0.05 0.05 81 1010.4
20260509102519 23 32 0.0 1.6 0.00 0.05 0.05 81 1010.4
20260509102019 23 32 0.0 0.0 0.00 0.05 0.05 81 1010.1
20260509101519 23 32 0.0 0.0 0.00 0.05 0.05 81 1009.9
20260509101019 23 32 0.0 0.0 0.00 0.05 0.05 81 1009.6
20260509100019 23 32 1.6 1.6 0.03 0.05 0.05 81 1009.3
20260509095519 23 32 0.0 0.0 0.03 0.05 0.05 81 1009.3
20260509095019 23 32 0.0 0.0 0.03 0.05 0.05 81 1009.2
20260509094018 23 32 0.0 0.0 0.05 0.05 0.05 81 1009.2
20260509093519 23 32 0.0 0.0 0.05 0.05 0.05 81 1009.2
20260509093018 23 32 0.0 0.0 0.05 0.05 0.05 81 1009.2
20260509092518 23 32 0.0 0.0 0.05 0.05 0.05 81 1009.3
20260509092018 23 32 0.0 0.0 0.05 0.05 0.05 81 1009.1
20260509090518 23 32 0.0 0.0 0.05 0.05 0.05 81 1009.0
20260509090017 23 32 0.0 0.0 0.03 0.03 0.03 81 1009.0
20260509085518 23 32 0.0 0.0 0.03 0.03 0.03 81 1009.1
20260509085018 23 32 0.0 0.0 0.03 0.03 0.03 81 1009.1
20260509084518 23 32 0.0 0.0 0.03 0.03 0.03 81 1009.2
20260509084017 23 32 0.0 3.2 0.00 0.00 0.00 81 1009.2
20260509083518 23 17 0.0 3.2 0.00 0.00 0.00 81 1009.3
20260509083017 23 82 0.0 1.6 0.00 0.00 0.00 81 1009.4
20260509082517 23 101 0.0 1.6 0.00 0.00 0.00 82 1009.5
20260509082017 23 90 0.0 1.6 0.00 0.00 0.00 82 1009.6
20260509081017 23 16 0.0 1.6 0.00 0.00 0.00 82 1009.6
20260509075517 23 115 3.2 4.8 0.00 0.00 0.00 82 1009.2
20260509075017 23 133 0.0 3.2 0.00 0.00 0.00 82 1009.2
20260509074517 23 133 0.0 4.8 0.00 0.00 0.00 82 1009.1
20260509074017 23 115 3.2 4.8 0.00 0.00 0.00 82 1009.2
20260509073516 23 193 0.0 1.6 0.00 0.00 0.00 82 1009.4
20260509073017 23 193 0.0 1.6 0.00 0.00 0.00 82 1009.5
20260509072016 23 252 0.0 0.0 0.00 0.00 0.00 82 1009.3
20260509071516 23 252 0.0 0.0 0.00 0.00 0.00 82 1009.5
20260509071016 23 252 0.0 0.0 0.00 0.00 0.00 82 1009.6
20260509070516 23 252 0.0 0.0 0.00 0.00 0.00 82 1009.7
20260509070016 23 252 0.0 4.8 0.00 0.00 0.00 82 1009.7
20260509065516 23 300 0.0 4.8 0.00 0.00 0.00 82 1009.4
20260509065016 23 165 0.0 3.2 0.00 0.00 0.00 82 1009.2
20260509064516 23 128 1.6 4.8 0.00 0.00 0.00 82 1009.3
20260509064016 23 178 0.0 4.8 0.00 0.00 0.00 82 1009.2
20260509063516 23 126 1.6 3.2 0.00 0.00 0.00 82 1009.2
20260509063016 23 127 0.0 3.2 0.00 0.00 0.00 82 1009.2
20260509062516 23 192 1.6 6.4 0.00 0.00 0.00 82 1009.4
20260509062016 23 148 4.8 6.4 0.00 0.00 0.00 82 1009.4
20260509061516 23 182 1.6 4.8 0.00 0.00 0.00 82 1009.3
20260509061016 23 140 1.6 9.7 0.00 0.00 0.00 82 1009.2
20260509060516 23 118 0.0 9.7 0.00 0.00 0.00 82 1009.1
20260509060015 23 215 1.6 6.4 0.00 0.00 0.00 82 1009.1
20260509055516 23 188 4.8 8.0 0.00 0.00 0.00 82 1009.1
20260509055016 23 150 3.2 8.0 0.00 0.00 0.00 82 1009.2
20260509054515 23 139 4.8 8.0 0.00 0.00 0.00 82 1009.3
20260509054015 23 176 3.2 4.8 0.00 0.00 0.00 82 1009.3
20260509053515 23 133 3.2 4.8 0.00 0.00 0.00 82 1009.3
20260509053015 23 123 3.2 4.8 0.00 0.00 0.00 82 1009.3
20260509052515 23 198 0.0 3.2 0.00 0.00 0.00 82 1009.1
20260509052015 23 171 3.2 3.2 0.00 0.00 0.00 82 1009.0
20260509051515 23 213 0.0 3.2 0.00 0.00 0.00 82 1008.8
20260509051015 23 153 3.2 3.2 0.00 0.00 0.00 82 1008.8
20260509050515 23 175 0.0 3.2 0.00 0.00 0.00 82 1008.9
20260509050015 23 175 0.0 3.2 0.00 0.00 0.00 82 1008.9
20260509045015 23 202 0.0 3.2 0.00 0.00 0.00 82 1008.8
20260509044515 23 157 0.0 3.2 0.00 0.00 0.00 81 1008.8
20260509044015 23 162 0.0 3.2 0.00 0.00 0.00 81 1008.7
20260509043515 23 165 0.0 0.0 0.00 0.00 0.00 81 1008.8
20260509043015 23 165 0.0 3.2 0.00 0.00 0.00 81 1008.9
20260509042514 23 165 0.0 3.2 0.00 0.00 0.00 81 1008.9
20260509042015 23 177 0.0 3.2 0.00 0.00 0.00 81 1008.8
20260509041514 23 161 1.6 3.2 0.00 0.00 0.00 81 1009.0
20260509041014 23 200 0.0 1.6 0.00 0.00 0.00 81 1009.2
20260509040514 23 200 0.0 1.6 0.00 0.00 0.00 81 1009.2
20260509035514 23 130 0.0 0.0 0.00 0.00 0.00 81 1009.1
20260509035014 24 130 0.0 0.0 0.00 0.00 0.00 80 1009.1
20260509034514 24 130 0.0 0.0 0.00 0.00 0.00 80 1009.1
20260509034014 24 130 0.0 0.0 0.00 0.00 0.00 80 1008.9
20260509033514 24 130 0.0 0.0 0.00 0.00 0.00 80 1009.0
20260509033014 24 130 0.0 1.6 0.00 0.00 0.00 80 1008.9
20260509032514 24 130 0.0 4.8 0.00 0.00 0.00 80 1008.9
20260509032014 24 121 3.2 4.8 0.00 0.00 0.00 80 1008.8
20260509031514 24 157 1.6 4.8 0.00 0.00 0.00 80 1008.7
20260509031014 25 205 0.0 4.8 0.00 0.00 0.00 80 1008.7
20260509030514 25 130 0.0 6.4 0.00 0.00 0.00 80 1008.6
20260509025514 25 151 0.0 3.2 0.00 0.00 0.00 80 1008.6
20260509025014 25 152 0.0 3.2 0.00 0.00 0.00 79 1008.6
20260509024514 25 157 0.0 1.6 0.00 0.00 0.00 79 1008.5
20260509024014 25 129 0.0 0.0 0.00 0.00 0.00 79 1008.6
20260509023513 25 105 0.0 0.0 0.00 0.00 0.00 79 1008.5
20260509022514 25 105 1.6 3.2 0.00 0.00 0.00 79 1008.4
20260509022014 25 105 0.0 3.2 0.00 0.00 0.00 79 1008.2
20260509021014 25 190 3.2 9.7 0.00 0.00 0.00 78 1008.0
20260509020514 25 150 1.6 3.2 0.00 0.00 0.00 78 1007.8
20260509020013 25 123 0.0 4.8 0.00 0.00 0.00 78 1007.7
20260509015513 25 96 0.0 6.4 0.00 0.00 0.00 78 1007.6
20260509015013 25 101 0.0 6.4 0.00 0.00 0.00 78 1007.6
20260509014514 25 154 1.6 4.8 0.00 0.00 0.00 78 1007.7
20260509013513 25 138 8.0 8.0 0.00 0.00 0.00 77 1007.7
20260509012513 25 124 3.2 3.2 0.00 0.00 0.00 77 1007.8
20260509012013 25 102 1.6 12.9 0.00 0.00 0.00 77 1007.7
20260509011513 25 172 8.0 12.9 0.00 0.00 0.00 77 1007.7
20260509011013 26 98 3.2 9.7 0.00 0.00 0.00 77 1007.7
20260509010512 26 117 0.0 3.2 0.00 0.00 0.00 77 1007.6
20260509010013 26 74 1.6 6.4 0.00 0.00 0.00 77 1007.6
20260509005512 26 121 1.6 6.4 0.00 0.00 0.00 76 1007.6
20260509005013 26 201 6.4 6.4 0.00 0.00 0.00 76 1007.5
20260509004013 26 122 1.6 9.7 0.00 0.00 0.00 76 1007.5
20260509003012 26 110 9.7 9.7 0.00 0.00 0.00 76 1007.5
20260509002512 26 130 4.8 4.8 0.00 0.00 0.00 75 1007.5
20260509002012 26 164 0.0 4.8 0.00 0.00 0.00 75 1007.6
20260509001012 26 133 0.0 3.2 0.00 0.00 0.00 75 1007.6
20260509000512 26 141 0.0 4.8 0.00 0.00 0.00 75 1007.7
20260509000012 26 109 3.2 6.4 0.00 0.00 0.00 75 1007.6
20260508235512 26 196 3.2 6.4 0.00 0.00 0.00 74 1007.5
20260508235012 26 192 3.2 4.8 0.00 0.00 0.00 74 1007.5
20260508234512 26 125 1.6 3.2 0.00 0.00 0.00 74 1007.5
20260508234012 26 172 3.2 8.0 0.00 0.00 0.00 74 1007.6
20260508233512 27 119 1.6 8.0 0.00 0.00 0.00 74 1007.5
20260508233012 27 120 3.2 8.0 0.00 0.00 0.00 74 1007.5
20260508232512 27 168 1.6 12.9 0.00 0.00 0.00 74 1007.5
20260508232011 27 254 3.2 12.9 0.00 0.00 0.00 74 1007.6
20260508231512 27 133 1.6 6.4 0.00 0.00 0.00 73 1007.6
20260508231011 27 165 6.4 9.7 0.00 0.00 0.00 73 1007.7
20260508230512 27 176 4.8 9.7 0.00 0.00 0.00 73 1007.7
20260508230011 27 212 3.2 8.0 0.00 0.00 0.00 73 1007.7
20260508225511 27 205 6.4 8.0 0.00 0.00 0.00 73 1007.6
20260508225012 27 236 3.2 6.4 0.00 0.00 0.00 73 1007.6
20260508223511 27 206 1.6 6.4 0.00 0.00 0.00 72 1007.5
20260508223011 27 123 4.8 6.4 0.00 0.00 0.00 72 1007.5
20260508222511 27 217 1.6 4.8 0.00 0.00 0.00 71 1007.6
20260508222011 27 137 1.6 4.8 0.00 0.00 0.00 72 1007.6
20260508220510 27 220 1.6 12.9 0.00 0.00 0.00 72 1007.7
20260508220010 27 98 1.6 12.9 0.00 0.00 0.00 72 1007.7
20260508215010 27 90 4.8 4.8 0.00 0.00 0.00 72 1007.8
20260508214510 27 135 0.0 12.9 0.00 0.00 0.00 72 1007.9
20260508213510 27 140 0.0 3.2 0.00 0.00 0.00 72 1007.9
20260508212010 26 124 3.2 4.8 0.00 0.00 0.00 72 1008.2
20260508211510 26 105 0.0 3.2 0.00 0.00 0.00 72 1008.3
20260508211010 26 217 1.6 6.4 0.00 0.00 0.00 73 1008.4
20260508210510 26 113 0.0 6.4 0.00 0.00 0.00 72 1008.6
20260508210010 26 98 3.2 8.0 0.00 0.00 0.00 73 1008.6
20260508205510 26 84 1.6 8.0 0.00 0.00 0.00 72 1008.8
20260508205009 26 123 6.4 9.7 0.00 0.00 0.00 72 1008.7
20260508204509 26 71 4.8 9.7 0.00 0.00 0.00 72 1008.8
20260508204009 26 147 3.2 6.4 0.00 0.00 0.00 73 1008.8
20260508203509 26 111 4.8 9.7 0.00 0.00 0.00 72 1009.0
20260508203009 26 125 6.4 9.7 0.00 0.00 0.00 72 1008.9
20260508202510 26 121 8.0 8.0 0.00 0.00 0.00 72 1008.9
20260508202009 26 85 1.6 8.0 0.00 0.00 0.00 72 1009.0
20260508201509 26 107 4.8 6.4 0.00 0.00 0.00 72 1009.0
20260508201009 26 126 4.8 14.5 0.00 0.00 0.00 73 1008.8
20260508200509 26 127 6.4 14.5 0.00 0.00 0.00 72 1009.0
20260508200009 26 139 6.4 6.4 0.00 0.00 0.00 73 1009.2
20260508195509 26 219 1.6 11.3 0.00 0.00 0.00 73 1009.2
20260508195009 26 82 0.0 11.3 0.00 0.00 0.00 73 1009.3
20260508194509 26 187 4.8 6.4 0.00 0.00 0.00 73 1009.4
20260508194009 25 101 0.0 4.8 0.00 0.00 0.00 73 1009.4
20260508193009 25 5 1.6 12.9 0.00 0.00 0.00 73 1009.6
20260508192509 25 254 4.8 4.8 0.00 0.00 0.00 73 1009.6
20260508192009 25 112 0.0 3.2 0.00 0.00 0.00 73 1009.7
20260508191509 25 105 3.2 4.8 0.00 0.00 0.00 73 1009.7
20260508191008 25 112 1.6 4.8 0.00 0.00 0.00 73 1009.8
20260508190038 25 108 1.6 6.4 0.00 0.00 0.00 73 1009.8
20260508185508 25 115 1.6 3.2 0.00 0.00 0.00 73 1009.9
20260508185008 25 103 1.6 1.6 0.00 0.00 0.00 73 1010.0
20260508184508 25 55 0.0 8.0 0.00 0.00 0.00 73 1010.0
20260508184008 25 109 3.2 8.0 0.00 0.00 0.00 73 1010.1
20260508183508 25 164 3.2 9.7 0.00 0.00 0.00 74 1010.2
20260508183008 24 105 6.4 9.7 0.00 0.00 0.00 74 1010.2
20260508182508 24 115 1.6 14.5 0.00 0.00 0.00 74 1010.4
20260508182009 24 135 6.4 14.5 0.00 0.00 0.00 74 1010.5
20260508181008 24 85 0.0 9.7 0.00 0.00 0.00 74 1010.7
20260508180508 24 84 0.0 4.8 0.00 0.00 0.00 73 1010.8
20260508180038 24 108 0.0 1.6 0.00 0.00 0.00 74 1010.9
20260508175508 24 47 0.0 4.8 0.00 0.00 0.00 74 1010.9
20260508175008 23 101 1.6 4.8 0.00 0.00 0.00 74 1010.9
20260508174508 23 94 0.0 3.2 0.00 0.00 0.00 74 1011.0
20260508174008 23 103 1.6 1.6 0.00 0.00 0.00 73 1010.9
20260508173508 24 129 1.6 1.6 0.00 0.00 0.00 73 1011.1
20260508173008 24 98 0.0 6.4 0.00 0.00 0.00 73 1011.3
20260508172008 24 128 0.0 4.8 0.00 0.00 0.00 73 1011.3
20260508171508 24 75 1.6 1.6 0.00 0.00 0.00 73 1011.3
20260508171008 24 67 0.0 1.6 0.00 0.00 0.00 73 1011.2
20260508170508 24 111 0.0 4.8 0.00 0.00 0.00 73 1011.2
20260508165507 24 128 3.2 4.8 0.00 0.00 0.00 72 1011.4
20260508165008 24 111 0.0 8.0 0.00 0.00 0.00 73 1011.3
20260508164507 24 347 4.8 8.0 0.00 0.00 0.00 73 1011.3
20260508164007 23 67 0.0 4.8 0.00 0.00 0.00 73 1011.3
20260508163007 23 131 1.6 4.8 0.00 0.00 0.00 74 1011.3
20260508162507 22 138 1.6 4.8 0.00 0.00 0.00 75 1011.4
20260508162007 22 109 1.6 3.2 0.00 0.00 0.00 76 1011.6
20260508161507 22 139 0.0 1.6 0.00 0.00 0.00 75 1011.7
20260508160507 22 90 0.0 0.0 0.00 0.00 0.00 76 1012.0
20260508160007 22 90 0.0 1.6 0.00 0.00 0.00 76 1012.1
20260508155507 21 90 0.0 1.6 0.00 0.00 0.00 76 1012.0
20260508155007 21 90 0.0 3.2 0.00 0.00 0.00 76 1011.9
20260508154507 21 327 3.2 3.2 0.00 0.00 0.00 77 1011.9
20260508153507 21 153 0.0 1.6 0.00 0.00 0.00 77 1012.3
20260508153007 20 118 0.0 6.4 0.00 0.00 0.00 77 1012.2
20260508152507 20 123 6.4 6.4 0.00 0.00 0.00 77 1012.2
20260508152007 20 319 3.2 4.8 0.00 0.00 0.00 77 1012.3
20260508151006 20 150 1.6 3.2 0.00 0.00 0.00 78 1012.4
20260508150506 20 146 0.0 3.2 0.00 0.00 0.00 78 1012.5
20260508150007 19 111 0.0 3.2 0.00 0.00 0.00 78 1012.5
20260508145506 19 111 1.6 3.2 0.00 0.00 0.00 78 1012.5
20260508145006 19 104 0.0 1.6 0.00 0.00 0.00 78 1012.4
20260508144506 19 104 0.0 3.2 0.00 0.00 0.00 78 1012.4
20260508144007 19 104 1.6 3.2 0.00 0.00 0.00 78 1012.5